Terminal Aerodrome Forecast
Issued by NWS Springfield, MO

Home | Current Version | Previous Version | Text Only | Print | Product List | Glossary On
Versions: 1 2 3 4 5 6 7 8 9 10 11 12 13
000
FTUS43 KSGF 271100
TAFSGF
TAF
KSGF 271120Z 2712/2812 VRB04KT P6SM SKC
     FM271700 13005KT P6SM SCT050 PROB30 2721/2724 P6SM TS BKN050CB
     FM280100 14004KT P6SM SCT250=

USA.gov is the U.S. government's official web portal to all federal, state and local government web resources and services.